Find Aerocube 8C

NORAD ID: 41853 Int'l Des: 2016-067 Owner: AERO Country: US operational
LEOCIRCULARRETROGRADE

Live Position

Loading 3D Globe...

About Aerocube 8C

Description loading...

Upcoming Passes

Passes for default location (London). Set your location on the main map for personalized predictions.

Altitude History

Loading altitude history...

Two-Line Element Set

1 41853U 16067F 26104.56517280 .00004191 00000-0 17770-3 0 9998
2 41853 98.0651 327.2221 0003882 284.7750 75.3055 15.23753540516377
Epoch: Apr 14, 2026 • Age: 8 hours

Current Status

Altitude 500.1 km
Velocity 7.61 km/s
Sub-Earth Point -17.46°S, 166.54°E
Launch Date Nov 11, 2016
Age 9.4 years
Type other

Technical Details

Classification Payload
Mass 2.00 kg
Dry Mass 2.00 kg
Total Mass 2.00 kg
Length 0.20 m
Diameter 0.10 m
Span 0.20 m
Shape Box
Manufacturer AERO
Bus Type Cubesat 1.5U
Phase Status In Orbit
Owner/State AERO/US

Most Searched